Location: Unnamed
(39.4956°N, 6.3666°W)
Time: 13:26:58
(UTC+02:00)

ISS - Visible Passes

Search period start: 20 April 2024 00:00
Search period end: 30 April 2024 00:00
Orbit: 412 x 418 km, 51.6° (Epoch: 20 April)

Date Brightness Start Highest point End Pass type
(mag) Time Alt. Az. Time Alt. Az. Time Alt. Az.
20 Apr -3.4 07:05:13 10° SW 07:08:30 63° SE 07:11:48 10° ENE visible
21 Apr -2.5 06:18:03 20° S 06:19:44 33° SE 06:22:46 10° ENE visible
22 Apr -1.6 05:31:13 18° SE 05:31:13 18° SE 05:33:23 10° E visible
22 Apr -3.2 07:04:15 10° WSW 07:07:28 45° NNW 07:10:41 10° NE visible
23 Apr -3.8 06:17:08 33° WSW 06:18:29 80° NW 06:21:49 10° NE visible
24 Apr -3.0 05:30:03 47° E 05:30:03 47° E 05:32:47 10° ENE visible
24 Apr -1.9 07:03:45 10° WNW 07:06:25 22° NNW 07:09:06 10° NNE visible
25 Apr -0.8 04:42:52 14° ENE 04:42:52 14° ENE 04:43:31 10° ENE visible
25 Apr -2.5 06:15:43 21° WNW 06:17:13 31° NNW 06:20:15 10° NE visible
26 Apr -3.0 05:28:26 48° N 05:28:26 48° N 05:31:19 10° NE visible
27 Apr -1.1 04:41:02 20° NE 04:41:02 20° NE 04:42:13 10° NE visible
27 Apr -1.5 06:13:53 11° WNW 06:15:57 18° NNW 06:18:18 10° NNE visible
28 Apr -2.0 05:26:24 24° NNW 05:26:34 24° NNW 05:29:21 10° NNE visible
28 Apr -0.9 07:03:19 10° NNW 07:04:12 11° N 07:05:04 10° N visible
29 Apr -1.2 04:38:51 21° NNE 04:38:51 21° NNE 04:40:17 10° NE visible
29 Apr -1.0 06:13:13 10° NW 06:14:38 12° NNW 06:16:04 10° NNE visible
